Location: Cheyres
(46.8153°N, 6.7877°E)
Time: 22:17:43
(UTC+00:00)

NANOSAT C BR1 - Pass Details

Date: 27 June 2022
Orbit: 584 x 599 km, 98.0° (Epoch: 13 August)

Event Time Altitude Azimuth Distance (km) Brightness Sun altitude
Rises 02:12:26 0° 8° (N) 2,845 ? -11.5°
Reaches altitude 10° 02:14:39 10° 3° (N) 1,941 ? -11.2°
Maximum altitude 02:18:42 49° 289° (WNW) 777 ? -10.8°
Enters shadow 02:22:02 15° 218° (SW) 1,651 ? -10.5°
